Hourly Weather Warnkowo

Today, 20 September, Sunday

Time Temperature Precipitation Wind Pressure Humidity
00:00 +12°C° 0 mm 2 mps 762 mmHg 74%
01:00 +12°C° 0 mm 2 mps 762 mmHg 72%
02:00 +12°C° 0 mm 2 mps 762 mmHg 68%
03:00 +12°C° 0 mm 2 mps 761 mmHg 65%
04:00 +10°C° 0 mm 2 mps 761 mmHg 62%
05:00 +10°C° 0 mm 2 mps 761 mmHg 61%
06:00 +12°C° 0 mm 2 mps 761 mmHg 61%
07:00 +12°C° 0 mm 2 mps 762 mmHg 62%
08:00 +14°C° 0 mm 2 mps 762 mmHg 56%
09:00 +16°C° 0 mm 2 mps 762 mmHg 51%
10:00 +18°C° 0 mm 2 mps 762 mmHg 45%
11:00 +19°C° 0 mm 2 mps 761 mmHg 42%
12:00 +20°C° 0 mm 2 mps 761 mmHg 38%
13:00 +21°C° 0 mm 2 mps 761 mmHg 35%
14:00 +21°C° 0 mm 2 mps 761 mmHg 36%
15:00 +21°C° 0 mm 2 mps 760 mmHg 38%
16:00 +21°C° 0 mm 2 mps 760 mmHg 39%
17:00 +19°C° 0 mm 2 mps 760 mmHg 44%
18:00 +17°C° 0 mm 2 mps 760 mmHg 50%
19:00 +15°C° 0 mm 2 mps 760 mmHg 55%
20:00 +14°C° 0 mm 2 mps 760 mmHg 56%
21:00 +14°C° 0 mm 2 mps 760 mmHg 57%
22:00 +13°C° 0 mm 2 mps 760 mmHg 58%
23:00 +12°C° 0 mm 2 mps 760 mmHg 60%

Tomorrow, 21 September, Monday

Time Temperature Precipitation Wind Pressure Humidity
00:00 +12°C° 0 mm 1 mps 760 mmHg 62%
01:00 +11°C° 0 mm 1 mps 760 mmHg 64%
02:00 +11°C° 0 mm 1 mps 760 mmHg 65%
03:00 +10°C° 0 mm 2 mps 760 mmHg 66%
04:00 +10°C° 0 mm 2 mps 760 mmHg 67%
05:00 +10°C° 0 mm 2 mps 760 mmHg 67%
06:00 +11°C° 0 mm 1 mps 760 mmHg 67%
07:00 +12°C° 0 mm 1 mps 760 mmHg 67%
08:00 +14°C° 0 mm 1 mps 760 mmHg 60%
09:00 +17°C° 0 mm 2 mps 760 mmHg 54%
10:00 +19°C° 0 mm 2 mps 759 mmHg 47%
11:00 +20°C° 0 mm 2 mps 759 mmHg 45%
12:00 +21°C° 0 mm 2 mps 759 mmHg 42%
13:00 +24°C° 0 mm 2 mps 759 mmHg 40%
14:00 +23°C° 0 mm 2 mps 758 mmHg 41%
15:00 +23°C° 0 mm 1 mps 758 mmHg 43%
16:00 +23°C° 0 mm 1 mps 758 mmHg 45%
17:00 +21°C° 0 mm 1 mps 758 mmHg 51%
18:00 +19°C° 0 mm 1 mps 757 mmHg 57%
19:00 +16°C° 0 mm 1 mps 757 mmHg 64%
20:00 +15°C° 0 mm 1 mps 757 mmHg 65%
21:00 +15°C° 0 mm 1 mps 757 mmHg 67%
22:00 +15°C° 0 mm 2 mps 757 mmHg 69%
23:00 +14°C° 0 mm 2 mps 757 mmHg 70%

Day after tomorrow, 22 September, Tuesday

Time Temperature Precipitation Wind Pressure Humidity
00:00 +14°C° 0 mm 2 mps 757 mmHg 72%
01:00 +14°C° 0 mm 2 mps 756 mmHg 73%
02:00 +13°C° 0 mm 2 mps 756 mmHg 74%
03:00 +13°C° 0 mm 2 mps 756 mmHg 76%
04:00 +13°C° 0 mm 2 mps 755 mmHg 77%
05:00 +14°C° 0 mm 2 mps 755 mmHg 76%
06:00 +14°C° 0 mm 2 mps 755 mmHg 75%
07:00 +14°C° 0 mm 2 mps 755 mmHg 75%
08:00 +17°C° 0 mm 2 mps 755 mmHg 67%
09:00 +19°C° 0 mm 3 mps 755 mmHg 60%
10:00 +22°C° 0 mm 3 mps 754 mmHg 52%
11:00 +24°C° 0 mm 3 mps 754 mmHg 48%
12:00 +25°C° 0 mm 3 mps 754 mmHg 44%
13:00 +26°C° 0 mm 4 mps 753 mmHg 40%
14:00 +26°C° 0 mm 4 mps 753 mmHg 42%
15:00 +25°C° 0 mm 3 mps 752 mmHg 44%
16:00 +25°C° 0 mm 3 mps 751 mmHg 46%
17:00 +22°C° 0 mm 3 mps 751 mmHg 52%
18:00 +20°C° 0 mm 3 mps 751 mmHg 58%
19:00 +18°C° 0 mm 2 mps 751 mmHg 64%
20:00 +18°C° 0 mm 2 mps 751 mmHg 66%
21:00 +17°C° 0 mm 3 mps 751 mmHg 67%
22:00 +17°C° 0 mm 3 mps 750 mmHg 69%
23:00 +16°C° 0 mm 3 mps 750 mmHg 71%

23 September, Wednesday

Time Temperature Precipitation Wind Pressure Humidity
00:00 +16°C° 0 mm 3 mps 750 mmHg 72%
01:00 +16°C° 0 mm 3 mps 750 mmHg 74%
02:00 +16°C° 0 mm 3 mps 750 mmHg 76%
03:00 +14°C° 0 mm 3 mps 750 mmHg 78%
04:00 +14°C° 0 mm 3 mps 749 mmHg 80%
05:00 +15°C° 0 mm 2 mps 749 mmHg 80%
06:00 +16°C° 0 mm 2 mps 749 mmHg 80%
07:00 +16°C° 0 mm 2 mps 749 mmHg 80%
08:00 +18°C° 0 mm 2 mps 749 mmHg 72%
09:00 +20°C° 0 mm 2 mps 749 mmHg 65%
10:00 +23°C° 0 mm 2 mps 749 mmHg 57%
11:00 +24°C° 0 mm 2 mps 749 mmHg 54%
12:00 +25°C° 0 mm 2 mps 749 mmHg 51%
13:00 +26°C° 0 mm 2 mps 749 mmHg 48%
14:00 +26°C° 0 mm 2 mps 749 mmHg 50%
15:00 +26°C° 0 mm 2 mps 748 mmHg 51%
16:00 +25°C° 0 mm 2 mps 748 mmHg 53%
17:00 +23°C° 0 mm 2 mps 748 mmHg 58%
18:00 +21°C° 0 mm 2 mps 748 mmHg 63%
19:00 +19°C° 0 mm 2 mps 748 mmHg 68%
20:00 +18°C° 0 mm 2 mps 748 mmHg 69%
21:00 +17°C° 0 mm 2 mps 748 mmHg 70%
22:00 +17°C° 0 mm 2 mps 748 mmHg 71%
23:00 +17°C° 0 mm 2 mps 748 mmHg 72%

24 September, Thursday

Time Temperature Precipitation Wind Pressure Humidity
00:00 +16°C° 0 mm 2 mps 748 mmHg 73%
01:00 +16°C° 0 mm 2 mps 748 mmHg 73%
02:00 +16°C° 0 mm 3 mps 748 mmHg 71%
03:00 +16°C° 0 mm 3 mps 748 mmHg 70%
04:00 +15°C° 0 mm 4 mps 747 mmHg 68%
05:00 +15°C° 0 mm 4 mps 747 mmHg 67%
06:00 +15°C° 0 mm 4 mps 747 mmHg 67%
07:00 +16°C° 0 mm 5 mps 747 mmHg 67%
08:00 +17°C° 0 mm 5 mps 748 mmHg 65%
09:00 +20°C° 0 mm 6 mps 748 mmHg 64%
10:00 +21°C° 0 mm 6 mps 748 mmHg 62%
11:00 +21°C° 0.3 mm 6 mps 749 mmHg 66%
12:00 +20°C° 0.3 mm 6 mps 749 mmHg 69%
13:00 +20°C° 0.3 mm 6 mps 750 mmHg 73%
14:00 +20°C° 0.1 mm 5 mps 750 mmHg 69%
15:00 +19°C° 0.1 mm 4 mps 750 mmHg 65%
16:00 +19°C° 0.1 mm 3 mps 750 mmHg 62%
17:00 +17°C° 0 mm 2 mps 750 mmHg 66%
18:00 +16°C° 0 mm 1 mps 751 mmHg 71%
19:00 +13°C° 0 mm 0 mps 751 mmHg 76%
20:00 +14°C° 0 mm 1 mps 751 mmHg 78%
21:00 +13°C° 0 mm 2 mps 751 mmHg 80%
22:00 +13°C° 0 mm 2 mps 751 mmHg 82%
23:00 +12°C° 0 mm 3 mps 750 mmHg 83%

25 September, Friday

Time Temperature Precipitation Wind Pressure Humidity
00:00 +12°C° 0 mm 3 mps 750 mmHg 83%
01:00 +12°C° 0 mm 3 mps 749 mmHg 84%
02:00 +13°C° 0.3 mm 3 mps 749 mmHg 86%
03:00 +13°C° 0.3 mm 3 mps 748 mmHg 88%
04:00 +13°C° 0.3 mm 3 mps 747 mmHg 90%
05:00 +13°C° 1.7 mm 4 mps 746 mmHg 91%
06:00 +14°C° 1.7 mm 4 mps 746 mmHg 92%
07:00 +14°C° 1.7 mm 4 mps 745 mmHg 93%
08:00 +14°C° 2.4 mm 4 mps 744 mmHg 93%
09:00 +14°C° 2.4 mm 4 mps 744 mmHg 93%
10:00 +14°C° 2.4 mm 5 mps 743 mmHg 94%
11:00 +14°C° 0.5 mm 4 mps 743 mmHg 93%
12:00 +14°C° 0.5 mm 3 mps 743 mmHg 91%
13:00 +14°C° 0.5 mm 3 mps 743 mmHg 90%
14:00 +14°C° 0.2 mm 3 mps 744 mmHg 87%
15:00 +14°C° 0.2 mm 3 mps 744 mmHg 84%
16:00 +14°C° 0.2 mm 3 mps 744 mmHg 81%
17:00 +14°C° 0 mm 3 mps 744 mmHg 81%
18:00 +13°C° 0 mm 3 mps 744 mmHg 82%
19:00 +13°C° 0 mm 2 mps 744 mmHg 83%
20:00 +13°C° 0 mm 2 mps 744 mmHg 82%
21:00 +12°C° 0 mm 2 mps 744 mmHg 81%
22:00 +12°C° 0 mm 2 mps 744 mmHg 81%
23:00 +10°C° 0 mm 2 mps 744 mmHg 81%
Show more